Torna al catalogo

STARLINK-33727

AttivoComunicazioniVLEO
NORAD 63719·PAYLOAD·🇺🇸 United States

Lanciato Apr 28, 2025 da Vandenberg Space Force Base

Loading…

Prossimi Passaggi (prossime 24 ore)

TLE

AggiornatoSource: CelesTrak SupGP

Epoca: Sep 14, 2026, 21:17 UTC

1 63719C 25087Y   26257.88729167  .00036609  00000+0  10820-2 0  2571
2 63719  53.1592  56.2755 0001077  75.0200 145.2207 15.34363129    11

Traccia STARLINK-33727 in tempo reale con AllMySat

Download on the App Store